Wetterdaten: Woche 01.12.08 - 07.12.08 (KW49)
Datum Zeit Temperatur Luftfeuchte Luftdruck Niederschlag Windrichtung Wind
01.12.2008 00:00 -1,2 C 92 % 998,9 hPa 0,0 l/m N-NW 6,3 km/h (2 Bft)
01.12.2008 01:00 -1,1 C 91 % 997,7 hPa 0,0 l/m N-NW 7,5 km/h (2 Bft)
01.12.2008 02:00 -1,2 C 91 % 997,2 hPa 0,0 l/m N-NW 7,5 km/h (2 Bft)
01.12.2008 03:00 -1,0 C 91 % 996,4 hPa 0,0 l/m N 7,4 km/h (2 Bft)
01.12.2008 04:00 -0,9 C 92 % 995,9 hPa 0,0 l/m N-NO 5,3 km/h (1 Bft)
01.12.2008 05:00 -0,7 C 92 % 995,6 hPa 0,0 l/m N-NW 7,3 km/h (2 Bft)
01.12.2008 06:00 -0,0 C 94 % 994,9 hPa 0,0 l/m W-NW 13,6 km/h (3 Bft)
01.12.2008 07:00 0,7 C 90 % 994,1 hPa 0,0 l/m NW 12,6 km/h (3 Bft)
01.12.2008 08:00 0,3 C 91 % 994,5 hPa 0,0 l/m S-SW 9,0 km/h (2 Bft)
01.12.2008 09:00 0,3 C 93 % 994,9 hPa 0,0 l/m S-SW 4,5 km/h (1 Bft)
01.12.2008 10:00 0,7 C 95 % 995,4 hPa 0,2 l/m S-SW 2,4 km/h (1 Bft)
01.12.2008 11:00 1,1 C 96 % 995,7 hPa 0,6 l/m W-SW 8,8 km/h (2 Bft)
01.12.2008 12:00 1,2 C 95 % 996,1 hPa 0,8 l/m W 15,3 km/h (3 Bft)
01.12.2008 13:00 1,1 C 95 % 996,9 hPa 0,4 l/m W 14,5 km/h (3 Bft)
01.12.2008 14:00 1,3 C 95 % 998,1 hPa 0,4 l/m W-SW 14,5 km/h (3 Bft)
01.12.2008 15:00 1,3 C 96 % 999,6 hPa 0,0 l/m W-SW 16,9 km/h (3 Bft)
01.12.2008 16:00 1,2 C 95 % 1000,8 hPa 0,0 l/m W-SW 13,3 km/h (3 Bft)
01.12.2008 17:00 0,9 C 97 % 1001,7 hPa 0,0 l/m SW 9,8 km/h (2 Bft)
01.12.2008 18:00 0,9 C 97 % 1002,5 hPa 0,0 l/m SW 12,1 km/h (2 Bft)
01.12.2008 19:00 1,1 C 97 % 1003,2 hPa 0,0 l/m SW 16,0 km/h (3 Bft)
01.12.2008 20:00 0,9 C 98 % 1003,8 hPa 0,0 l/m SW 13,6 km/h (3 Bft)
01.12.2008 21:00 0,8 C 97 % 1004,5 hPa 0,0 l/m SW 12,8 km/h (3 Bft)
01.12.2008 22:00 0,6 C 96 % 1005,1 hPa 0,0 l/m W-SW 11,6 km/h (2 Bft)
01.12.2008 23:00 0,4 C 95 % 1005,5 hPa 0,0 l/m SW 6,6 km/h (2 Bft)
02.12.2008 00:00 0,2 C 97 % 1005,8 hPa 0,0 l/m SW 8,9 km/h (2 Bft)
02.12.2008 01:00 0,5 C 98 % 1006,0 hPa 0,0 l/m SW 3,7 km/h (1 Bft)
02.12.2008 02:00 0,8 C 98 % 1006,4 hPa 0,0 l/m SW 7,6 km/h (2 Bft)
02.12.2008 03:00 1,1 C 96 % 1006,5 hPa 0,0 l/m SW 6,4 km/h (2 Bft)
02.12.2008 04:00 1,0 C 96 % 1006,8 hPa 0,0 l/m SW 4,8 km/h (1 Bft)
02.12.2008 05:00 1,0 C 96 % 1007,3 hPa 0,0 l/m W-SW 10,9 km/h (2 Bft)
02.12.2008 06:00 1,4 C 94 % 1007,7 hPa 0,0 l/m W-SW 14,9 km/h (3 Bft)
02.12.2008 07:00 1,7 C 92 % 1008,1 hPa 0,0 l/m W-SW 19,6 km/h (3 Bft)
02.12.2008 08:00 1,7 C 93 % 1008,6 hPa 0,0 l/m SW 18,9 km/h (3 Bft)
02.12.2008 09:00 2,2 C 90 % 1009,4 hPa 0,0 l/m W-SW 23,7 km/h (4 Bft)
02.12.2008 10:00 2,5 C 88 % 1010,1 hPa 0,0 l/m SW 23,6 km/h (4 Bft)
02.12.2008 11:00 2,8 C 86 % 1010,5 hPa 0,0 l/m W-SW 18,1 km/h (3 Bft)
02.12.2008 12:00 3,5 C 83 % 1010,6 hPa 0,0 l/m SW 21,7 km/h (4 Bft)
02.12.2008 13:00 3,5 C 81 % 1010,4 hPa 0,0 l/m SW 19,7 km/h (3 Bft)
02.12.2008 14:00 3,3 C 81 % 1010,3 hPa 0,0 l/m W-SW 18,5 km/h (3 Bft)
02.12.2008 15:00 3,1 C 77 % 1010,8 hPa 0,0 l/m W 18,6 km/h (3 Bft)
02.12.2008 16:00 2,5 C 77 % 1011,3 hPa 0,0 l/m SW 13,7 km/h (3 Bft)
02.12.2008 17:00 1,3 C 80 % 1011,5 hPa 0,0 l/m W-SW 10,2 km/h (2 Bft)
02.12.2008 18:00 0,5 C 77 % 1011,8 hPa 0,0 l/m W 12,0 km/h (2 Bft)
02.12.2008 19:00 -0,1 C 76 % 1012,1 hPa 0,0 l/m W-SW 12,5 km/h (3 Bft)
02.12.2008 20:00 -0,5 C 78 % 1011,9 hPa 0,0 l/m SW 12,5 km/h (3 Bft)
02.12.2008 21:00 -0,5 C 77 % 1011,7 hPa 0,0 l/m W-SW 17,3 km/h (3 Bft)
02.12.2008 22:00 -1,1 C 82 % 1011,5 hPa 0,0 l/m SW 14,8 km/h (3 Bft)
02.12.2008 23:00 -2,0 C 86 % 1011,2 hPa 0,0 l/m SW 9,0 km/h (2 Bft)
03.12.2008 00:00 -2,0 C 85 % 1010,8 hPa 0,0 l/m SW 9,1 km/h (2 Bft)
03.12.2008 01:00 -2,3 C 84 % 1009,9 hPa 0,0 l/m S-SW 5,5 km/h (1 Bft)
03.12.2008 02:00 -3,3 C 87 % 1009,5 hPa 0,0 l/m SW 8,0 km/h (2 Bft)
03.12.2008 03:00 -3,0 C 87 % 1008,7 hPa 0,0 l/m SW 7,4 km/h (2 Bft)
03.12.2008 04:00 -3,2 C 87 % 1007,7 hPa 0,0 l/m SW 8,6 km/h (2 Bft)
03.12.2008 05:00 -3,1 C 85 % 1006,5 hPa 0,0 l/m SW 10,6 km/h (2 Bft)
03.12.2008 06:00 -2,4 C 82 % 1006,0 hPa 0,0 l/m SW 11,1 km/h (2 Bft)
03.12.2008 07:00 -3,0 C 83 % 1005,5 hPa 0,0 l/m S-SO 2,9 km/h (1 Bft)
03.12.2008 08:00 -3,8 C 87 % 1004,8 hPa 0,0 l/m S 4,0 km/h (1 Bft)
03.12.2008 09:00 -3,0 C 90 % 1004,1 hPa 0,0 l/m S 7,2 km/h (2 Bft)
03.12.2008 10:00 -1,1 C 87 % 1003,8 hPa 0,0 l/m S-SW 11,3 km/h (2 Bft)
03.12.2008 11:00 0,5 C 80 % 1002,8 hPa 0,0 l/m SW 14,4 km/h (3 Bft)
03.12.2008 12:00 2,5 C 71 % 1002,1 hPa 0,0 l/m S-SW 14,9 km/h (3 Bft)
03.12.2008 13:00 2,9 C 69 % 1001,4 hPa 0,0 l/m S-SW 14,0 km/h (3 Bft)
03.12.2008 14:00 2,7 C 68 % 1001,2 hPa 0,0 l/m SW 11,0 km/h (2 Bft)
03.12.2008 15:00 3,4 C 57 % 1001,5 hPa 0,0 l/m W-SW 12,8 km/h (3 Bft)
03.12.2008 16:00 2,7 C 65 % 1002,0 hPa 0,0 l/m SW 12,2 km/h (2 Bft)
03.12.2008 17:00 2,0 C 71 % 1002,4 hPa 0,0 l/m SW 17,2 km/h (3 Bft)
03.12.2008 18:00 1,3 C 75 % 1003,2 hPa 0,0 l/m SW 8,9 km/h (2 Bft)
03.12.2008 19:00 1,2 C 76 % 1004,1 hPa 0,0 l/m SW 15,4 km/h (3 Bft)
03.12.2008 20:00 2,7 C 75 % 1004,8 hPa 0,0 l/m SW 17,0 km/h (3 Bft)
03.12.2008 21:00 2,5 C 79 % 1005,2 hPa 0,0 l/m SW 18,6 km/h (3 Bft)
03.12.2008 22:00 2,9 C 81 % 1005,5 hPa 0,0 l/m W-SW 18,5 km/h (3 Bft)
03.12.2008 23:00 3,1 C 85 % 1005,9 hPa 0,0 l/m W-SW 18,6 km/h (3 Bft)
04.12.2008 00:00 3,2 C 87 % 1006,0 hPa 0,0 l/m W-SW 17,2 km/h (3 Bft)
04.12.2008 01:00 2,7 C 88 % 1005,6 hPa 0,0 l/m SW 10,5 km/h (2 Bft)
04.12.2008 02:00 1,8 C 91 % 1006,0 hPa 0,0 l/m SW 6,8 km/h (2 Bft)
04.12.2008 03:00 1,7 C 92 % 1006,0 hPa 0,0 l/m SW 5,3 km/h (1 Bft)
04.12.2008 04:00 1,4 C 91 % 1006,0 hPa 0,0 l/m SW 14,9 km/h (3 Bft)
04.12.2008 05:00 1,5 C 91 % 1006,1 hPa 0,0 l/m SW 14,9 km/h (3 Bft)
04.12.2008 06:00 1,2 C 91 % 1005,7 hPa 0,0 l/m SW 16,9 km/h (3 Bft)
04.12.2008 07:00 1,7 C 85 % 1005,1 hPa 0,0 l/m W-SW 14,5 km/h (3 Bft)
04.12.2008 08:00 1,3 C 84 % 1004,4 hPa 0,0 l/m S 6,8 km/h (2 Bft)
04.12.2008 09:00 1,2 C 82 % 1004,5 hPa 0,0 l/m SW 6,9 km/h (2 Bft)
04.12.2008 10:00 2,4 C 72 % 1003,7 hPa 0,0 l/m S-SW 11,4 km/h (2 Bft)
04.12.2008 11:00 2,9 C 72 % 1002,9 hPa 0,0 l/m SW 16,2 km/h (3 Bft)
04.12.2008 12:00 2,8 C 76 % 1001,1 hPa 0,0 l/m S-SW 15,8 km/h (3 Bft)
04.12.2008 13:00 3,0 C 75 % 999,5 hPa 0,0 l/m SW 18,6 km/h (3 Bft)
04.12.2008 14:00 3,1 C 77 % 998,0 hPa 0,0 l/m S-SW 21,6 km/h (4 Bft)
04.12.2008 15:00 3,0 C 77 % 997,1 hPa 0,0 l/m S-SW 14,1 km/h (3 Bft)
04.12.2008 16:00 2,4 C 78 % 995,7 hPa 0,0 l/m SW 8,8 km/h (2 Bft)
04.12.2008 17:00 2,1 C 73 % 995,5 hPa 0,0 l/m SW 9,0 km/h (2 Bft)
04.12.2008 18:00 2,4 C 73 % 995,7 hPa 0,0 l/m SW 14,6 km/h (3 Bft)
04.12.2008 19:00 2,0 C 89 % 995,3 hPa 0,4 l/m W-SW 18,8 km/h (3 Bft)
04.12.2008 20:00 1,3 C 90 % 994,4 hPa 0,0 l/m SW 17,2 km/h (3 Bft)
04.12.2008 21:00 1,5 C 90 % 993,5 hPa 0,0 l/m W-SW 9,4 km/h (2 Bft)
04.12.2008 22:00 1,2 C 90 % 992,7 hPa 0,0 l/m N 1,1 km/h (0 Bft)
04.12.2008 23:00 0,6 C 93 % 992,6 hPa 0,0 l/m O 4,3 km/h (1 Bft)
05.12.2008 00:00 2,0 C 93 % 991,7 hPa 0,4 l/m SW 14,2 km/h (3 Bft)
05.12.2008 01:00 1,9 C 94 % 992,2 hPa 5,0 l/m SW 14,5 km/h (3 Bft)
05.12.2008 02:00 1,7 C 95 % 992,8 hPa 2,2 l/m W-SW 18,5 km/h (3 Bft)
05.12.2008 03:00 1,5 C 97 % 992,9 hPa 0,0 l/m W-SW 20,0 km/h (4 Bft)
05.12.2008 04:00 1,7 C 96 % 992,9 hPa 0,0 l/m W-SW 18,2 km/h (3 Bft)
05.12.2008 05:00 2,0 C 96 % 992,9 hPa 0,0 l/m SW 12,9 km/h (3 Bft)
05.12.2008 06:00 2,2 C 96 % 993,3 hPa 0,4 l/m SW 12,9 km/h (3 Bft)
05.12.2008 07:00 2,1 C 97 % 993,5 hPa 0,0 l/m SW 7,6 km/h (2 Bft)
05.12.2008 08:00 2,3 C 98 % 994,0 hPa 0,4 l/m SW 11,3 km/h (2 Bft)
05.12.2008 09:00 3,1 C 98 % 994,0 hPa 0,2 l/m SW 13,0 km/h (3 Bft)
05.12.2008 10:00 4,1 C 95 % 994,1 hPa 0,0 l/m W-SW 12,9 km/h (3 Bft)
05.12.2008 11:00 5,0 C 89 % 994,7 hPa 0,6 l/m W-SW 22,0 km/h (4 Bft)
05.12.2008 12:00 3,5 C 92 % 995,6 hPa 1,0 l/m SW 24,8 km/h (4 Bft)
05.12.2008 13:00 3,6 C 94 % 995,9 hPa 0,0 l/m W-SW 18,1 km/h (3 Bft)
05.12.2008 14:00 3,9 C 92 % 996,6 hPa 0,0 l/m W-SW 19,3 km/h (3 Bft)
05.12.2008 15:00 3,9 C 91 % 997,2 hPa 0,0 l/m W-SW 16,5 km/h (3 Bft)
05.12.2008 16:00 3,4 C 95 % 997,3 hPa 0,0 l/m S-SW 13,2 km/h (3 Bft)
05.12.2008 17:00 2,7 C 96 % 997,1 hPa 0,0 l/m SW 8,0 km/h (2 Bft)
05.12.2008 18:00 2,4 C 96 % 997,4 hPa 0,0 l/m SW 11,2 km/h (2 Bft)
05.12.2008 19:00 3,3 C 93 % 998,1 hPa 0,2 l/m SW 20,4 km/h (4 Bft)
05.12.2008 20:00 3,7 C 90 % 998,4 hPa 0,0 l/m SW 30,8 km/h (5 Bft)
05.12.2008 21:00 3,6 C 91 % 998,8 hPa 0,0 l/m SW 21,5 km/h (4 Bft)
05.12.2008 22:00 3,1 C 94 % 999,2 hPa 1,0 l/m SW 22,0 km/h (4 Bft)
05.12.2008 23:00 3,4 C 94 % 1000,3 hPa 0,2 l/m SW 27,3 km/h (4 Bft)
06.12.2008 00:00 3,3 C 94 % 1001,6 hPa 0,2 l/m W-SW 22,0 km/h (4 Bft)
06.12.2008 01:00 3,2 C 94 % 1002,2 hPa 0,0 l/m W-SW 21,7 km/h (4 Bft)
06.12.2008 02:00 3,2 C 93 % 1003,4 hPa 0,2 l/m SW 20,4 km/h (4 Bft)
06.12.2008 03:00 2,8 C 94 % 1004,0 hPa 0,2 l/m SW 20,4 km/h (4 Bft)
06.12.2008 04:00 2,7 C 92 % 1004,4 hPa 0,0 l/m W-SW 22,1 km/h (4 Bft)
06.12.2008 05:00 2,6 C 91 % 1004,9 hPa 0,0 l/m W-SW 20,5 km/h (4 Bft)
06.12.2008 06:00 2,7 C 92 % 1005,2 hPa 0,0 l/m W-SW 19,0 km/h (3 Bft)
06.12.2008 07:00 2,7 C 91 % 1005,6 hPa 0,0 l/m W 17,4 km/h (3 Bft)
06.12.2008 08:00 2,6 C 92 % 1006,1 hPa 0,0 l/m W-SW 19,3 km/h (3 Bft)
06.12.2008 09:00 3,1 C 89 % 1006,5 hPa 0,0 l/m W-SW 22,6 km/h (4 Bft)
06.12.2008 10:00 3,1 C 90 % 1007,2 hPa 0,6 l/m SW 28,6 km/h (4 Bft)
06.12.2008 11:00 2,7 C 93 % 1007,2 hPa 0,2 l/m SW 25,7 km/h (4 Bft)
06.12.2008 12:00 2,6 C 94 % 1007,1 hPa 0,2 l/m W-SW 23,0 km/h (4 Bft)
06.12.2008 13:00 2,8 C 94 % 1007,4 hPa 0,0 l/m W-SW 27,1 km/h (4 Bft)
06.12.2008 14:00 3,1 C 92 % 1008,1 hPa 0,0 l/m W-SW 26,4 km/h (4 Bft)
06.12.2008 15:00 3,0 C 92 % 1009,1 hPa 0,0 l/m W-SW 25,2 km/h (4 Bft)
06.12.2008 16:00 3,0 C 92 % 1010,1 hPa 0,4 l/m W-SW 21,6 km/h (4 Bft)
06.12.2008 17:00 2,8 C 93 % 1011,5 hPa 0,0 l/m W 16,0 km/h (3 Bft)
06.12.2008 18:00 2,5 C 92 % 1012,6 hPa 0,0 l/m W 11,8 km/h (2 Bft)
06.12.2008 19:00 2,3 C 93 % 1013,4 hPa 0,0 l/m W-SW 12,1 km/h (2 Bft)
06.12.2008 20:00 2,2 C 93 % 1014,5 hPa 0,0 l/m W 12,6 km/h (3 Bft)
06.12.2008 21:00 2,1 C 93 % 1015,4 hPa 0,0 l/m W 12,2 km/h (2 Bft)
06.12.2008 22:00 2,0 C 94 % 1015,9 hPa 0,0 l/m W-SW 13,8 km/h (3 Bft)
06.12.2008 23:00 1,9 C 93 % 1016,7 hPa 0,0 l/m W 14,1 km/h (3 Bft)
07.12.2008 00:00 2,1 C 93 % 1017,5 hPa 0,0 l/m W-NW 9,9 km/h (2 Bft)
07.12.2008 01:00 2,1 C 92 % 1017,9 hPa 0,0 l/m W 11,3 km/h (2 Bft)
07.12.2008 02:00 2,0 C 93 % 1018,6 hPa 0,0 l/m W-SW 10,7 km/h (2 Bft)
07.12.2008 03:00 1,8 C 94 % 1019,0 hPa 0,0 l/m SW 7,8 km/h (2 Bft)
07.12.2008 04:00 1,3 C 95 % 1019,6 hPa 0,0 l/m S-SW 8,2 km/h (2 Bft)
07.12.2008 05:00 1,4 C 97 % 1020,3 hPa 0,0 l/m SW 8,6 km/h (2 Bft)
07.12.2008 06:00 1,7 C 95 % 1021,0 hPa 0,6 l/m SW 7,2 km/h (2 Bft)
07.12.2008 07:00 1,6 C 95 % 1021,9 hPa 0,2 l/m W 6,6 km/h (2 Bft)
07.12.2008 08:00 1,5 C 95 % 1022,6 hPa 0,0 l/m W 8,3 km/h (2 Bft)
07.12.2008 09:00 1,7 C 96 % 1023,5 hPa 0,0 l/m W 6,2 km/h (2 Bft)
07.12.2008 10:00 2,2 C 96 % 1024,3 hPa 0,0 l/m S-SW 2,9 km/h (1 Bft)
07.12.2008 11:00 2,9 C 95 % 1024,8 hPa 0,0 l/m W-SW 5,3 km/h (1 Bft)
07.12.2008 12:00 3,3 C 91 % 1025,1 hPa 0,0 l/m W-NW 6,7 km/h (2 Bft)
07.12.2008 13:00 3,6 C 90 % 1025,0 hPa 0,0 l/m W-SW 7,6 km/h (2 Bft)
07.12.2008 14:00 3,9 C 88 % 1025,3 hPa 0,0 l/m W 7,1 km/h (2 Bft)
07.12.2008 15:00 3,8 C 88 % 1025,7 hPa 0,0 l/m W 6,4 km/h (2 Bft)
07.12.2008 16:00 3,4 C 89 % 1026,2 hPa 0,0 l/m W 3,2 km/h (1 Bft)
07.12.2008 17:00 2,9 C 91 % 1026,8 hPa 0,0 l/m N 0,0 km/h (0 Bft)
07.12.2008 18:00 2,4 C 92 % 1027,3 hPa 0,0 l/m N 0,3 km/h (0 Bft)
07.12.2008 19:00 1,8 C 93 % 1027,9 hPa 0,0 l/m W-NW 0,9 km/h (0 Bft)
07.12.2008 20:00 1,4 C 94 % 1028,3 hPa 0,0 l/m N 0,0 km/h (0 Bft)
07.12.2008 21:00 1,2 C 95 % 1028,6 hPa 0,0 l/m N 0,0 km/h (0 Bft)
07.12.2008 22:00 0,8 C 95 % 1028,6 hPa 0,0 l/m N 0,0 km/h (0 Bft)
07.12.2008 23:00 0,8 C 96 % 1029,0 hPa 0,0 l/m N 0,3 km/h (0 Bft)
Min-Datum _ 03.12.08 03.12.08 05.12.08 - - 01.12.08
_ Min-Zeit 08:25 15:20 00:55 - - 09:50
Minimum _ -3,9 C 51 % 991,2 hPa - - 0,0 km/h (0 Bft)
Max-Datum _ 05.12.08 02.12.08 07.12.08 05.12.08 - 05.12.08
_ Max-Zeit 11:05 04:35 23:30 01:45 - 20:50
Maximum _ 5,2 C 100 % 1029,2 hPa 5,0 l/m - 45,1 km/h
SW (6 Bft)
Durchschnitt _ 1,6 C 89 % 1005,9 hPa #17,2 l/m SW 13,0 km/h (3 Bft)